Humidity-temperature Sensor

Selected Measurement Type: Air Temperature

 
Air Temperature [°C]     6 entries per hour
Showing data from 8/11/2018 (00:00:00 Z) to 8/8/2018 (00:01:00 Z)
Previous Next [ Day | 3-Days | 7-Days ]
First Last
Prev [ Day | 3-Days | 7-Days ] Next
First Last

Start Time:     :
End Time:     :     
Time (in GMT) :00 :50 :40 :30 :20 :10
Previous Next [ Day | 3-Days | 7-Days ]
First Last
Prev [ Day | 3-Days | 7-Days ] Next
First Last


123 => good data
MM => data is determined as missing
-- => data not received/configured
Back to Top Back to Top
8/11/2018 00:00 to 23:10 28.81 28.76 28.65 28.70 28.62 28.79
8/10/2018 23:00 to 22:10 28.64 28.67 28.85 28.63 28.58 28.79
8/10/2018 22:00 to 21:10 28.68 28.60 28.64 28.63 28.67 28.55
8/10/2018 21:00 to 20:10 28.68 28.45 28.48 28.39 28.40 28.38
8/10/2018 20:00 to 19:10 28.37 28.34 28.22 28.31 28.16 28.36
8/10/2018 19:00 to 18:10 28.25 28.30 28.18 28.23 28.16 28.11
8/10/2018 18:00 to 17:10 28.07 27.95 27.81 27.79 27.72 27.77
8/10/2018 17:00 to 16:10 27.80 27.75 27.86 27.68 27.93 27.80
8/10/2018 16:00 to 15:10 27.78 27.87 27.83 27.94 27.89 27.81
8/10/2018 15:00 to 14:10 27.98 27.86 27.93 27.87 27.90 27.92
8/10/2018 14:00 to 13:10 27.69 27.89 27.82 27.80 27.71 27.75
8/10/2018 13:00 to 12:10 27.91 27.73 27.87 27.94 27.82 27.95
8/10/2018 12:00 to 11:10 28.01 27.84 27.96 27.96 27.97 28.04
8/10/2018 11:00 to 10:10 28.08 28.09 28.04 27.99 27.97 28.04
8/10/2018 10:00 to 9:10 27.98 28.11 28.10 28.02 27.95 27.98
8/10/2018 09:00 to 8:10 28.02 27.97 27.94 28.08 28.04 27.89
8/10/2018 08:00 to 7:10 27.98 28.18 27.97 28.15 28.08 27.97
8/10/2018 07:00 to 6:10 27.93 28.01 27.94 28.06 27.99 27.80
8/10/2018 06:00 to 5:10 27.98 27.86 27.81 27.84 27.79 27.81
8/10/2018 05:00 to 4:10 27.76 27.54 27.77 27.56 27.62 27.47
8/10/2018 04:00 to 3:10 27.72 27.50 27.70 27.62 27.48 27.34
8/10/2018 03:00 to 2:10 27.24 27.16 27.04 27.30 27.11 27.03
8/10/2018 02:00 to 1:10 27.12 27.38 27.77 27.78 27.79 27.94
8/10/2018 01:00 to 0:10 28.07 27.79 27.70 27.61 27.66 27.80
8/10/2018 00:00 to 23:10 28.19 28.09 27.96 28.01 28.05 27.98
8/9/2018 23:00 to 22:10 28.07 28.06 28.08 27.97 27.85 27.86
8/9/2018 22:00 to 21:10 27.82 27.81 27.73 27.72 27.64 27.51
8/9/2018 21:00 to 20:10 27.60 27.63 27.72 27.86 27.58 27.61
8/9/2018 20:00 to 19:10 27.39 27.63 27.42 27.48 27.29 27.43
8/9/2018 19:00 to 18:10 27.40 27.32 27.37 27.43 27.55 27.36
8/9/2018 18:00 to 17:10 27.36 27.32 27.13 27.34 27.12 27.20
8/9/2018 17:00 to 16:10 26.95 26.71 26.69 27.06 26.95 26.54
8/9/2018 16:00 to 15:10 26.75 27.31 27.19 27.03 26.93 26.38
8/9/2018 15:00 to 14:10 26.47 26.48 26.32 26.56 26.48 26.40
8/9/2018 14:00 to 13:10 26.44 26.60 26.47 26.34 27.16 27.28
8/9/2018 13:00 to 12:10 27.16 27.18 27.25 27.26 27.64 27.91
8/9/2018 12:00 to 11:10 27.74 27.60 27.30 27.94 28.26 27.85
8/9/2018 11:00 to 10:10 27.79 27.72 28.27 27.88 27.63 27.84
8/9/2018 10:00 to 9:10 27.70 27.60 27.36 27.33 27.29 27.64
8/9/2018 09:00 to 8:10 27.57 27.49 27.21 27.27 27.33 27.02
8/9/2018 08:00 to 7:10 27.05 26.98 26.90 26.79 27.01 26.50
8/9/2018 07:00 to 6:10 26.29 26.21 26.15 25.99 26.13 26.19
8/9/2018 06:00 to 5:10 26.14 26.44 26.07 26.20 26.69 26.39
8/9/2018 05:00 to 4:10 26.46 26.43 26.33 26.80 26.98 27.31
8/9/2018 04:00 to 3:10 27.01 27.05 26.84 26.73 26.50 26.70
8/9/2018 03:00 to 2:10 26.56 26.77 26.62 26.86 26.89 26.81
8/9/2018 02:00 to 1:10 26.97 26.86 27.06 27.24 27.25 27.06
8/9/2018 01:00 to 0:10 26.83 26.67 26.53 26.38 26.21 26.13
8/9/2018 00:00 to 23:10 26.16 26.59 26.54 26.11 27.35 27.08
8/8/2018 23:00 to 22:10 27.14 27.37 27.53 27.43 27.30 27.28
8/8/2018 22:00 to 21:10 27.24 27.03 26.98 27.22 27.07 26.86
8/8/2018 21:00 to 20:10 26.51 26.16 26.02 26.36 26.56 26.19
8/8/2018 20:00 to 19:10 26.41 28.03 28.02 28.17 28.08 28.01
8/8/2018 19:00 to 18:10 27.94 27.95 27.86 27.82 27.94 27.80
8/8/2018 18:00 to 17:10 27.80 27.64 27.63 27.55 27.57 27.49
8/8/2018 17:00 to 16:10 27.42 27.44 27.30 27.23 27.23 27.16
8/8/2018 16:00 to 15:10 27.11 26.97 26.72 26.53 26.47 26.56
8/8/2018 15:00 to 14:10 26.56 26.42 26.44 26.97 26.98 26.85
8/8/2018 14:00 to 13:10 26.62 27.05 26.83 26.78 26.67 26.94
8/8/2018 13:00 to 12:10 26.67 26.49 26.53 26.32 26.40 26.91
8/8/2018 12:00 to 11:10 27.12 26.99 26.96 26.77 26.67 26.54
8/8/2018 11:00 to 10:10 26.46 26.42 26.41 26.42 26.59 26.55
8/8/2018 10:00 to 9:10 26.44 26.43 26.51 26.68 26.82 26.76
8/8/2018 09:00 to 8:10 26.67 26.54 26.51 26.39 26.34 26.23
8/8/2018 08:00 to 7:10 26.21 26.06 26.27 26.42 26.41 27.04
8/8/2018 07:00 to 6:10 27.80 27.81 27.68 27.69 27.72 27.64
8/8/2018 06:00 to 5:10 27.69 27.96 28.19 28.11 28.13 28.06
8/8/2018 05:00 to 4:10 28.12 28.18 28.18 28.21 28.20 28.30
8/8/2018 04:00 to 3:10 28.24 28.44 28.58 28.62 28.51 28.96
8/8/2018 03:00 to 2:10 29.65 29.38 29.49 29.29 29.39 29.26
8/8/2018 02:00 to 1:10 29.18 29.03 29.05 29.12 28.94 29.03
8/8/2018 01:00 to 0:10 29.13 28.70 28.55 28.39 28.34 28.28